UTA7775 USRO-USRR

Flight info

Callsign UTA7775
Flight time N/A
Altitude 24000
Route DINOL2G DINOL T797 INDUS INDUS1T
Aircraft AT76/M-SDFGIRY/S

Departure

Time N/A
Airport Noyabrsk Airport (USRO)

Arrival

Time 2026-04-19 08:11
Airport Surgut International Airport (USRR)
Time Latitude Longitude Altitude Speed Heading
2026-04-19 08:01 61.34692 73.30117 7289 ft 154 kts 206°
2026-04-19 08:02 61.33752 73.29118 7148 ft 148 kts 226°
2026-04-19 08:02 61.33425 73.27300 7014 ft 134 kts 287°
2026-04-19 08:02 61.33793 73.25559 6812 ft 135 kts 301°
2026-04-19 08:02 61.34207 73.23734 6447 ft 142 kts 299°
2026-04-19 08:03 61.34595 73.21830 6052 ft 143 kts 296°
2026-04-19 08:03 61.34934 73.19868 5663 ft 144 kts 293°
2026-04-19 08:03 61.35233 73.17867 5292 ft 144 kts 290°
2026-04-19 08:03 61.35481 73.15826 4777 ft 149 kts 288°
2026-04-19 08:04 61.35720 73.13654 4123 ft 158 kts 286°
2026-04-19 08:04 61.35946 73.11411 3532 ft 158 kts 285°
2026-04-19 08:04 61.36156 73.09176 2966 ft 156 kts 284°
2026-04-19 08:04 61.36338 73.06964 2362 ft 154 kts 283°
2026-04-19 08:05 61.36336 73.05496 1953 ft 157 kts 258°
2026-04-19 08:05 61.35655 73.03754 1331 ft 160 kts 207°
2026-04-19 08:05 61.34568 73.03361 736 ft 159 kts 176°
2026-04-19 08:05 61.33462 73.04494 722 ft 128 kts 127°
2026-04-19 08:06 61.33179 73.05546 743 ft 120 kts 104°
2026-04-19 08:06 61.33140 73.07259 726 ft 118 kts 77°
2026-04-19 08:06 61.33358 73.08907 766 ft 122 kts 68°
2026-04-19 08:06 61.33661 73.10610 749 ft 121 kts 68°
2026-04-19 08:07 61.33828 73.12291 742 ft 120 kts 77°
2026-04-19 08:07 61.33939 73.14014 835 ft 120 kts 78°
2026-04-19 08:07 61.34053 73.15754 873 ft 122 kts 79°
2026-04-19 08:07 61.34139 73.17502 902 ft 121 kts 83°
2026-04-19 08:08 61.34177 73.19247 914 ft 120 kts 87°
2026-04-19 08:08 61.34180 73.20982 898 ft 117 kts 88°
2026-04-19 08:08 61.34192 73.22673 878 ft 116 kts 83°
2026-04-19 08:08 61.34201 73.24382 782 ft 120 kts 87°
2026-04-19 08:09 61.34202 73.26125 717 ft 118 kts 86°
2026-04-19 08:09 61.34303 73.27793 652 ft 116 kts 80°
2026-04-19 08:09 61.34332 73.29510 639 ft 117 kts 87°
2026-04-19 08:09 61.34346 73.31039 586 ft 97 kts 86°
2026-04-19 08:10 61.34353 73.32418 507 ft 90 kts 86°
2026-04-19 08:10 61.34368 73.33818 438 ft 106 kts 87°
2026-04-19 08:10 61.34373 73.35367 391 ft 108 kts 86°
2026-04-19 08:10 61.34370 73.36957 240 ft 106 kts 86°
2026-04-19 08:11 61.34374 73.38414 125 ft 91 kts 88°
2026-04-19 08:11 61.34374 73.38901 116 ft 0 kts 89°